Regional Weather Roundup
Issued by NWS

Home | Current Version | Previous Version | Text Only | Print | Product List | Glossary On
Versions: 1 2 3 4 5 6 7 8 9 10 11 12 13 14 15 16 17 18 19 20 21 22 23 24 25 26 27 28 29 30 31 32 33 34 35 36 37 38 39 40 41 42 43 44 45 46 47 48 49 50
000
ASUS44 KJAN 302310
RWRMS

MISSISSIPPI HOURLY WEATHER ROUNDUP
NATIONAL WEATHER SERVICE JACKSON MS
600 PM CDT THU MAR 30 2017

NOTE: "FAIR: INDICATES FEW OR NO CLOUDS BELOW 12,000 FEET WITH NO
SIGNIFICANT WEATHER AND/OR OBSTRUCTIONS TO VISIBILITY.

MSZ001>002-007>008-010>013-018>021-025>028-034>036-310000-
NORTHWEST MISSISSIPPI

CITY           SKY/WX    TMP DP  RH WIND       PRES   REMARKS
BATESVILLE     MOCLDY    70  57  64 SW18G24   29.65R
CLEVELAND      FAIR      73  49  42 W13G23    29.67R
GREENWOOD      CLOUDY    67  64  90 SW12G20   29.68S
GREENVILLE     MOSUNNY   71  47  42 W18       29.67R
OLIVE BRANCH   PTSUNNY  N/A N/A N/A W16G29    29.61R
OXFORD         LGT RAIN  63  61  94 SW8       29.68R
TUNICA         PTCLDY    68  46  45 W26       29.65R
WINONA         CLOUDY    70  57  62 S8        29.68R
$$

MSZ003>006-009-014>017-022>024-029>033-037>039-310000-
NORTHEAST MISSISSIPPI

CITY           SKY/WX    TMP DP  RH WIND       PRES   REMARKS
COLUMBUS AFB   MOSUNNY   74  53  48 SW8       29.68R
CORINTH        MOCLDY    73  52  46 S18G31    29.62R
GOLDN TRIANGLE MOSUNNY   73  50  43 SW12G18   29.66R
STARKVILLE     FAIR      73  52  46 SW9       29.71R
TUPELO         MOSUNNY   72  50  45 S18G26    29.65F
$$

MSZ040-058-310000-
CENTRAL MISSISSIPPI

CITY           SKY/WX    TMP DP  RH WIND       PRES   REMARKS
JACKSON INTL   MOSUNNY   73  58  59 S10       29.69F
JACKSON HAWKNS MOSUNNY   73  57  57 SW15      29.71F
MADISON        FAIR      70  57  64 SW8       29.70S
MERIDIAN KEY   CLOUDY    71  57  61 S14       29.73R
MERIDIAN NAS   CLOUDY    73  52  47 S8G17     29.72S
RAYMOND        FAIR      73  59  60 S7        29.70S
VICKSBURG VKS  PTCLDY    72  63  73 S12G17    29.69S
$$

MSZ059>079-310000-
SOUTH MISSISSIPPI

CITY           SKY/WX    TMP DP  RH WIND       PRES   REMARKS
BROOKHAVEN     FAIR      73  59  60 S9        29.75S
COLUMBIA       FAIR      70 N/A N/A SW6       29.77S
HATTIESBURG    CLOUDY    68  59  73 S7        29.74S
LAUREL         FAIR      68  60  73 S7        29.74S
MCCOMB         MOSUNNY   71  57  61 SW10      29.75S
NATCHEZ        NOT AVBL
PINE BELT      MOSUNNY   70  57  64 S6        29.74F
$$

MSZ080>082-310000-
COASTAL MISSISSIPPI

CITY           SKY/WX    TMP DP  RH WIND       PRES   REMARKS
BAY ST LOUIS   MOSUNNY   66  59  77 MISG      29.74F
BILOXI         PTSUNNY   68  62  81 SE7       29.73S
PASCAGOULA     CLOUDY    64  60  87 E3        29.74S
GULFPORT       CLOUDY    69  63  81 SE14      29.73F
$$

LAZ007>009-015>016-023>026-310000-
NORTHEAST LOUISIANA

CITY           SKY/WX    TMP DP  RH WIND       PRES   REMARKS
BASTROP        FAIR      71  47  41 W13G21    29.72R
TALLULAH/VBURG NOT AVBL
VIDALIA        MOCLDY    72  58  63 SW10      29.72S
$$



USA.gov is the U.S. government's official web portal to all federal, state and local government web resources and services.